Weather History for KBRO - March, 2012

Change the Weather History Date:

Monday, March 12, 2012

  Actual Average Record
Temperature  
Mean Temperature 73 °F 68 °F  
Max Temperature 84 °F 78 °F 99 °F (1954)
Min Temperature 61 °F 59 °F 33 °F (1948)
Degree Days  
Heating Degree Days 0 2  
Month to date heating degree days 22 24  
Since 1 July heating degree days 352 527  
Cooling Degree Days 8 5  
Month to date cooling degree days 64 55  
Year to date cooling degree days 304 196  
Growing Degree Days 21 (Base 50)    
Moisture  
Dew Point 66 °F    
Average Humidity 78    
Maximum Humidity 100    
Minimum Humidity 55    
Precipitation  
Precipitation T in 0.04 in 4.79 in (2007)
Month to date precipitation 0.16 0.43  
Year to date precipitation 4.74 2.78  
Sea Level Pressure  
Sea Level Pressure 30.04 in    
Wind  
Wind Speed 7 mph (SE)    
Max Wind Speed 17 mph    
Max Gust Speed 22 mph    
Visibility 7 miles    
Events Fog    
T = Trace of Precipitation, MM = Missing Value Source: NWS Daily Summary

Daily Weather History Graph

Daily Weather History Graph

Search for Another Location

Airport or City:

Trip Planner

Search our weather history database for the weather conditions in past years. The results will help you decide how hot, cold, wet, or windy it might be!

Date:

Astronomy

Mar. 12, 2012 Rise Set
Actual Time 7:41 AM CDT 7:37 PM CDT
Civil Twilight 7:18 AM CDT 8:00 PM CDT
Nautical Twilight 6:51 AM CDT 8:27 PM CDT
Astronomical Twilight 6:25 AM CDT 8:53 PM CDT
Moon No Moon Rise 10:38 AM CDT (3/12)
Length of Visible Light 12h 41m
Length of Day
11h 55m
Waning Gibbous, 76% of the Moon is Illuminated
Mar 12
Waning Gibbous
Mar 14
Last Quarter
Mar 22
New
Mar 30
First Quarter
Apr 6
Full

Hourly Weather History & Observations

Time (CDT) Temp. Heat Index Dew Point Humidity Pressure Visibility Wind Dir Wind Speed Gust Speed Precip Events Conditions
12:37 AM 60.8 °F - 59.0 °F 94% 30.06 in 10.0 mi SSE 4.6 mph - N/A   Scattered Clouds
12:48 AM 60.8 °F - 59.0 °F 94% 30.05 in 10.0 mi SSE 4.6 mph - N/A   Mostly Cloudy
12:53 AM 61.0 °F - 60.1 °F 97% 30.05 in 10.0 mi SSE 5.8 mph - N/A   Mostly Cloudy
1:03 AM 60.8 °F - 60.8 °F 100% 30.05 in 10.0 mi SSE 3.5 mph - N/A   Overcast
1:20 AM 62.6 °F - 60.8 °F 94% 30.05 in 10.0 mi SE 3.5 mph - N/A   Overcast
1:42 AM 62.6 °F - 60.8 °F 94% 30.04 in 9.0 mi ESE 5.8 mph - N/A   Overcast
1:53 AM 63.0 °F - 62.1 °F 97% 30.03 in 8.0 mi SE 6.9 mph - N/A   Overcast
2:53 AM 64.0 °F - 63.0 °F 96% 30.01 in 5.0 mi ESE 8.1 mph - N/A   Overcast
3:02 AM 64.4 °F - 62.6 °F 94% 30.01 in 1.8 mi ESE 9.2 mph - N/A   Overcast
3:53 AM 64.0 °F - 64.0 °F 100% 30.00 in 0.8 mi SE 5.8 mph - N/A   Mist
4:53 AM 64.0 °F - 64.0 °F 100% 29.99 in 0.5 mi SE 4.6 mph - N/A Fog Fog
5:37 AM 64.4 °F - 64.4 °F 100% 29.98 in 1.0 mi ESE 5.8 mph - N/A   Mist
5:53 AM 64.9 °F - 64.9 °F 100% 29.99 in 1.2 mi ESE 6.9 mph - N/A   Overcast
6:03 AM 64.4 °F - 64.4 °F 100% 29.99 in 0.8 mi SE 8.1 mph - N/A   Mist
6:53 AM 64.9 °F - 64.9 °F 100% 29.99 in 0.8 mi ESE 4.6 mph - N/A   Mist
7:06 AM 66.2 °F - 66.2 °F 100% 30.00 in 1.0 mi ESE 3.5 mph - N/A   Mist
7:41 AM 64.4 °F - 64.4 °F 100% 30.01 in 3.0 mi ESE 4.6 mph - N/A   Overcast
7:49 AM 64.4 °F - 64.4 °F 100% 30.02 in 3.0 mi SE 3.5 mph - N/A   Mostly Cloudy
7:53 AM 64.9 °F - 64.9 °F 100% 30.01 in 4.0 mi SE 3.5 mph - N/A   Scattered Clouds
8:22 AM 66.2 °F - 64.4 °F 94% 30.03 in 4.0 mi SE 5.8 mph - N/A   Mostly Cloudy
8:53 AM 66.9 °F - 66.9 °F 100% 30.05 in 6.0 mi SSE 3.5 mph - N/A   Mostly Cloudy
9:00 AM 68.0 °F - 66.2 °F 94% 30.05 in 7.0 mi Calm Calm - N/A   Partly Cloudy
9:25 AM 69.8 °F - 68.0 °F 94% 30.06 in 8.0 mi SSE 4.6 mph - N/A   Mostly Cloudy
9:39 AM 69.8 °F - 69.8 °F 100% 30.07 in 8.0 mi South 3.5 mph - N/A   Overcast
9:53 AM 70.0 °F - 69.1 °F 97% 30.07 in 8.0 mi Calm Calm - N/A   Overcast
10:53 AM 70.0 °F - 68.0 °F 93% 30.09 in 5.0 mi SW 4.6 mph - N/A   Overcast
11:07 AM 69.8 °F - 69.8 °F 100% 30.10 in 4.0 mi WSW 6.9 mph - N/A   Overcast
11:53 AM 72.0 °F - 69.1 °F 91% 30.10 in 8.0 mi WSW 3.5 mph - N/A   Overcast
12:01 PM 71.6 °F - 69.8 °F 94% 30.10 in 8.0 mi Calm Calm - N/A   Overcast
12:34 PM 77.0 °F - 69.8 °F 78% 30.10 in 10.0 mi Variable 4.6 mph - N/A   Mostly Cloudy
12:46 PM 77.0 °F - 69.8 °F 78% 30.09 in 10.0 mi SE 8.1 mph - 0.00 in   Mostly Cloudy
12:53 PM 78.1 °F - 69.1 °F 74% 30.09 in 10.0 mi SE 6.9 mph - 0.00 in   Mostly Cloudy
1:38 PM 80.6 °F 83.9 °F 69.8 °F 70% 30.07 in 10.0 mi SE 16.1 mph - N/A   Mostly Cloudy
1:53 PM 81.0 °F 84.4 °F 70.0 °F 69% 30.06 in 10.0 mi SE 15.0 mph - N/A   Scattered Clouds
2:53 PM 81.0 °F 83.8 °F 68.0 °F 65% 30.03 in 10.0 mi SE 13.8 mph - N/A   Mostly Cloudy
3:53 PM 82.9 °F 85.0 °F 66.0 °F 56% 30.01 in 10.0 mi SE 11.5 mph - N/A   Scattered Clouds
4:53 PM 82.0 °F 83.8 °F 64.9 °F 56% 29.99 in 10.0 mi SE 15.0 mph 20.7 mph N/A   Partly Cloudy
5:53 PM 80.1 °F 82.1 °F 66.0 °F 62% 29.99 in 10.0 mi SE 11.5 mph - N/A   Clear
6:53 PM 75.9 °F - 68.0 °F 76% 30.01 in 10.0 mi SE 13.8 mph - N/A   Partly Cloudy
7:37 PM 73.4 °F - 69.8 °F 88% 30.02 in 10.0 mi ESE 9.2 mph - N/A   Mostly Cloudy
7:53 PM 73.0 °F - 70.0 °F 90% 30.02 in 10.0 mi ESE 9.2 mph - N/A   Mostly Cloudy
8:17 PM 73.4 °F - 69.8 °F 88% 30.03 in 10.0 mi ESE 8.1 mph - N/A   Mostly Cloudy
8:40 PM 71.6 °F - 69.8 °F 94% 30.04 in 10.0 mi ESE 6.9 mph - N/A   Partly Cloudy
8:53 PM 72.0 °F - 70.0 °F 93% 30.04 in 10.0 mi ESE 6.9 mph - N/A   Clear
9:53 PM 71.1 °F - 69.1 °F 93% 30.06 in 10.0 mi ESE 6.9 mph - N/A   Clear
10:53 PM 70.0 °F - 69.1 °F 97% 30.07 in 9.0 mi ESE 6.9 mph - N/A   Clear
11:38 PM 69.8 °F - 68.0 °F 94% 30.07 in 8.0 mi ESE 6.9 mph - N/A   Scattered Clouds
11:53 PM 70.0 °F - 69.1 °F 97% 30.07 in 6.0 mi ESE 8.1 mph - N/A   Mostly Cloudy